SAUDISAT 1C (SO-50) 1 27607U 02058C 26237.20295726 .00000820 00000+0 11405-3 0 9993 2 27607 64.5511 275.4310 0073069 249.8159 109.5078 14.83176088274695 SAUDISAT 2 1 28371U 04025F 26237.26706208 .00000230 00000+0 62278-4 0 9996 2 28371 98.5553 239.0489 0025953 84.8640 275.5518 14.56716593175808 SAUDISAT 3 1 31118U 07012B 26237.14403087 .00000220 00000+0 43643-4 0 9998 2 31118 98.1507 187.6078 0014955 13.6255 346.5353 14.71460148 37880 PISAT 1 41784U 16059B 26236.93796993 .00000826 00000+0 14778-3 0 9994 2 41784 97.8228 234.4549 0028694 348.9855 11.0720 14.69094051529831 FLYING LAPTOP 1 42831U 17042G 26237.30040620 .00001735 00000+0 13833-3 0 9993 2 42831 97.4959 30.3212 0016095 252.7830 107.1634 15.01504733496822 SALSAT 1 46495U 20068K 26237.26336136 .00007111 00000+0 24232-3 0 9999 2 46495 97.8877 244.5903 0011121 65.4484 294.7913 15.30667520325921